Regional Weather Roundup
Issued by NWS Raleigh/Durham, NC

Home | Current Version | Previous Version | Text Only | Print | Product List | Glossary On
Versions: 1 2 3 4 5 6 7 8 9 10 11 12 13 14 15 16 17 18 19 20 21 22 23 24 25 26 27 28 29 30 31 32 33 34 35 36 37 38 39 40 41 42 43 44 45 46 47 48 49 50
000
ASUS42 KRAH 301210
RWRRAH
NORTH CAROLINA WEATHER ROUNDUP
NATIONAL WEATHER SERVICE RALEIGH NC
800 AM EDT TUE SEP 30 2014

NOTE: "FAIR" INDICATES FEW OR NO CLOUDS BELOW 12,000 FEET WITH NO
SIGNIFICANT WEATHER AND/OR OBSTRUCTIONS TO VISIBILITY.

NCZ001-053-055-056-065-067-301300-
WESTERN NORTH CAROLINA

CITY           SKY/WX    TMP DP  RH WIND       PRES   REMARKS
ASHEVILLE      MOCLDY    59  57  93 N6        30.03R
JEFFERSON      PTCLDY    57  56  97 CALM      30.02S FOG
MORGANTON      CLOUDY    60  60 100 CALM      30.02R FOG
HICKORY        FOG       61  61 100 W5        29.96S VSB 1/4
RUTHERFORDTON  CLEAR     58  58 100 NW3       29.98R
MOUNT AIRY     FOG       61  59  94 CALM      29.97S VSB 1/4
BOONE          CLEAR     49  49 100 CALM      30.04S FOG
$$

NCZ021-022-025-041-071-084-088-301300-
CENTRAL NORTH CAROLINA

CITY           SKY/WX    TMP DP  RH WIND       PRES   REMARKS
CHARLOTTE      FOG       60  59  96 NW3       29.96R VSB 1/2
GREENSBORO     FOG       61  61 100 W3        29.94R VSB 1/8
WINSTON-SALEM  FOG       61  60  97 NW5       29.96R VSB 1/4
RALEIGH-DURHAM FOG       63  61  93 CALM      29.95R VSB 1
FORT BRAGG     FOG       61  61 100 CALM      29.92S VSB 1/2
FAYETTEVILLE   FOG       60  59  96 CALM      29.92R VSB 1/4
BURLINGTON     CLOUDY    64  60  87 NW3       29.94R FOG
LAURINBURG     FOG       60  59  96 CALM      29.94R VSB 1
$$

NCZ011-015-027-028-043-044-047-080-103-301300-
NORTHEASTERN NORTH CAROLINA

CITY           SKY/WX    TMP DP  RH WIND       PRES   REMARKS
ROCKY MT-WILSO FOG       61  60  97 CALM      29.93R VSB<1/4
GREENVILLE     MOSUNNY   61  61 100 CALM      29.94S FOG
WASHINGTON     SUNNY     63  61  96 N5        29.93R
ELIZABETH CITY SUNNY     65  63  93 N6        29.92R
MANTEO         PTSUNNY   68  60  74 NE5       29.90S
CAPE HATTERAS  CLOUDY    64  63  96 NE3       29.89S
$$

NCZ078-087-090-091-093-098-101-301300-
SOUTHEASTERN NORTH CAROLINA

CITY           SKY/WX    TMP DP  RH WIND       PRES   REMARKS
LUMBERTON      FOG       60  60 100 NE5       29.92R VSB<1/4
GOLDSBORO      SUNNY     63  62  98 CALM      29.91R
KINSTON        SUNNY     63  63 100 N5        29.93R FOG
KENANSVILLE    SUNNY     61  61 100 CALM      29.93S FOG
NEW BERN       SUNNY     65  61  87 N5        29.93R
CHERRY POINT   MOSUNNY   66  63  90 N9        29.91S
BEAUFORT       CLOUDY    67  66  97 N9        29.90R
JACKSONVILLE   SUNNY     64  62  93 N6        29.90R
WILMINGTON     SUNNY     64  62  93 N7        29.90R FOG
$$



USA.gov is the U.S. government's official web portal to all federal, state and local government web resources and services.